Regional Weather Roundup
Issued by NWS

Home | Current Version | Previous Version | Text Only | Print | Product List | Glossary On
Versions: 1 2 3 4 5 6 7 8 9 10 11 12 13 14 15 16 17 18 19 20 21 22 23 24 25 26 27
000
ASUS45 KREV 230310
RWRNV
NEVADA REGIONAL WEATHER ROUNDUP
NATIONAL WEATHER SERVICE RENO NV
700 PM PST WED FEB 22 2017

NOTE: "FAIR" INDICATES FEW OR NO CLOUDS BELOW 12,000 FEET WITH NO
SIGNIFICANT WEATHER AND/OR OBSTRUCTIONS TO VISIBILITY.

NVZ001-003-004-230400-
WESTERN NEVADA

CITY           SKY/WX    TMP DP  RH WIND       PRES   REMARKS
RENO           MOCLDY    32  14  47 NW10G22   29.98F
CARSON CITY    FAIR      32  10  40 W10G22    29.99F
MINDEN         FAIR      32  14  47 SE6G21    30.00S
PYRAMID LAKE     N/A     34 N/A N/A SW6         N/A
FALLON         MOCLDY    35  15  44 W16       29.97S
LOVELOCK       CLEAR     33  22  63 W9        29.96S
HAWTHORNE      CLOUDY    37  12  35 VRB3      29.97S
$$

NVZ002-CAZ072-073-230400-
NORTHERN AND CENTRAL SIERRA

CITY           SKY/WX    TMP DP  RH WIND       PRES   REMARKS
S. LAKE TAHOE  MOCLDY    22  14  71 SW6       29.95F
TRUCKEE        LGT SNOW  21  18  86 CALM      29.98S
SQUAW VLY 8000   N/A     32  32 100 SW15        N/A
SUSANVILLE     PTCLDY   N/A N/A N/A MISG      30.00S
MAMMOTH LAKES  MOCLDY    22   8  53 W21G28    29.93S
BRIDGEPORT       N/A     17   5  59 N6        29.91F
$$

NVZ030-031-036-230400-
NORTHERN NEVADA

CITY           SKY/WX    TMP DP  RH WIND       PRES   REMARKS
ELKO           MOCLDY    28  19  69 SW10      29.84F
WINNEMUCCA     NOT AVBL
WENDOVER       PTCLDY    36  16  44 NW16      29.82F
$$

NVZ035-037-230400-
CENTRAL NEVADA

CITY           SKY/WX    TMP DP  RH WIND       PRES   REMARKS
ELY            PTCLDY    17   6  62 W7        29.85F
EUREKA           N/A     27   5  39 W14       29.88F
$$

NVZ013-014-230400-
SOUTH CENTRAL NEVADA

CITY           SKY/WX    TMP DP  RH WIND       PRES   REMARKS
TONOPAH        CLOUDY    34   1  24 N14G23    29.89S
$$

NVZ017-020-022-230400-
SOUTHERN NEVADA

CITY           SKY/WX    TMP DP  RH WIND       PRES   REMARKS
LAS VEGAS      PTCLDY    51  30  44 NW30G43   29.81R
N. LAS VEGAS   MOCLDY    48  32  53 NW36G46   29.82R
NELLIS AFB     PTCLDY    51  30  43 W38G47    29.82R
HENDERSON      PTCLDY    51  30  44 N20G28    29.83R
MERCURY        CLOUDY    42  32  67 SE10      29.86F
$$




USA.gov is the U.S. government's official web portal to all federal, state and local government web resources and services.